Regional Weather Roundup
Issued by NWS Upton, NY

Current Version | Previous Version | Graphics & Text | Print | Product List | Glossary Off
Versions: 1 2 3 4 5 6 7 8 9 10 11 12 13 14 15 16 17 18 19 20 21 22 23 24 25 26 27 28 29 30 31 32 33 34 35 36 37 38 39 40 41 42 43 44 45 46 47 48 49 50

000
ASUS41 KOKX 210305
RWROKX
REGIONAL WEATHER ROUNDUP
NATIONAL WEATHER SERVICE NEW YORK NY
1100 PM EDT MON OCT 20 2014

NOTE: "FAIR" INDICATES FEW OR NO CLOUDS BELOW 12,000 FEET WITH NO
SIGNIFICANT WEATHER AND/OR OBSTRUCTIONS TO VISIBILITY.

NYZ071-072-176-178-NJZ106-104-210400-
NEW YORK CITY METRO AREA


CITY           SKY/WX    TMP DP  RH WIND       PRES   REMARKS
CENTRAL PARK   MOCLDY    58  44  60 CALM      30.00S
LAGUARDIA APRT MOCLDY    57  45  64 S7        29.97F
KENNEDY INTL   MOCLDY    60  46  59 SW16G24   29.99S
NEWARK/LIBERTY MOCLDY    56  45  66 S8        29.98S
BRNX BOT. GARD   N/A     55  43  62 E3        29.99S
TETERBORO      MOCLDY    54  41  61 S3        29.96F
$$

NYZ177-179-078>081-210400-
LONG ISLAND NEW YORK

CITY           SKY/WX    TMP DP  RH WIND       PRES   REMARKS
FARMINGDALE    PTCLDY    59  47  64 SW10      29.99S
ISLIP          MOCLDY    52  45  77 CALM      29.98S
SHIRLEY        CLOUDY    60  50  69 SW9       30.00S
WESTHAMPTON    CLOUDY    61  48  62 SW9G21    30.00F
MONTAUK POINT    N/A     61  50  67 SW7       30.02S
$$

NYZ052-065-067-210400-
HUDSON VALLEY

CITY           SKY/WX    TMP DP  RH WIND       PRES   REMARKS
WHITE PLAINS   MOCLDY    49  42  77 CALM      29.97S
NEWBURGH       MOCLDY    52  41  66 CALM      29.97S
MONTGOMERY     CLOUDY    44  40  85 N5        29.95F
POUGHKEEPSIE   CLOUDY    49  41  74 CALM      29.97R
ALBANY         CLOUDY    52  37  56 S8        29.95R
$$

NJZ001-105-106-008-010-013-015-019>022-104-210400-
NEW JERSEY

CITY           SKY/WX    TMP DP  RH WIND       PRES   REMARKS
NEWARK/LIBERTY MOCLDY    56  45  66 S8        29.98S
TETERBORO      MOCLDY    54  41  61 S3        29.96F
CALDWELL       CLOUDY    48  40  73 CALM      29.98S
MORRISTOWN     CLOUDY    46  41  81 CALM      29.98R
SOMERVILLE     CLOUDY    46  41  82 NW3       29.96S
SUSSEX         CLOUDY    50  42  74 CALM      29.96S
ANDOVER          N/A     52  39  61 CALM      29.96S
TRENTON        CLOUDY    51  43  74 S5        29.97S
MILLVILLE      MOCLDY    54  45  71 CALM      29.98F
ATLANTIC CITY  MOCLDY    55  45  68 S6        29.99F
WRIGHTSTOWN    CLOUDY    51  45  79 SW5       29.96F
TOMS RIVER     CLOUDY    54  43  66 CALM      29.99S
BELMAR         MOCLDY    55  43  62 SW7       29.99S
$$

PAZ047>061-062-071-210400-
EASTERN PENNSYLVANIA

CITY           SKY/WX    TMP DP  RH WIND       PRES   REMARKS
PHILADELPHIA   CLOUDY    56  43  61 S8        29.98S
ALLENTOWN      CLOUDY    54  42  64 SW5       29.96S
SCRANTON       CLOUDY    54  41  61 W6        29.92F
$$

CTZ002-004>006-009-010-012-RIZ004-006-007-MAZ004-011-015-210400-
SOUTHERN NEW ENGLAND
 IN CT

CITY           SKY/WX    TMP DP  RH WIND       PRES   REMARKS
BRADLEY INTL   CLOUDY    49  40  71 CALM      29.98S
HARTFORD       MOCLDY    48  42  80 S5        29.99S
DANBURY        CLOUDY    44  31  60 CALM      29.99S
WTRBRY/OXFORD  CLOUDY    50  37  62 CALM      29.98S
BRIDGEPORT     MOCLDY    60  47  61 SW10      29.98F
MERIDEN        MOCLDY    43  40  89 CALM      30.00R
NEW HAVEN      MOCLDY    62  45  53 SW7       29.99S
CHESTER        FAIR      46  43  87 SW3       30.00S
GROTON         MOCLDY    58  49  72 SW10      29.99F
WILLIMANTIC    MOCLDY    42  38  85 CALM      30.01S

 IN RI

CITY           SKY/WX    TMP DP  RH WIND       PRES   REMARKS
PROVIDENCE     MOCLDY    46  41  82 W3        30.02S
BLOCK ISLAND   MOCLDY    59  46  63 SW17      30.01F
WESTERLY       MOCLDY    58  48  69 SW6       30.01S

 IN MA

CITY           SKY/WX    TMP DP  RH WIND       PRES   REMARKS
BOSTON         MOCLDY    51  40  65 S5        30.01F
WORCESTER      CLOUDY    45  38  76 SW7       29.98S
WESTFIELD      CLOUDY    47  41  80 CALM      29.98S
PROVINCETOWN   MOCLDY    54  43  66 SW10      30.04R
NANTUCKET      MOCLDY    57  45  64 SW17      30.05S
$$

ANZ330-335-338-340-345-350-353-355-210400-
COASTAL MARINE OBSERVATIONS


STATION/POSITION TIME  SKY/WX   TEMP    WIND        PRES    VSBY  WAVE
                                AIR SEA DIR/SP/G                  HT/PER
                 (UTC)          (F)     (DEG/KT/KT) (MB)    (MI)  (FT/S)
NY HARB ENTRANCE NOT AVBL
4S FIRE IS       0300               63                N/A           5/ 5
20S FIRE ISLAND  0300            63 63  210/ 19/ 23 1015.4          6/ 6
23SW MTP         0300                                 N/A           5/ 6
HUDSON CANYON    0300            63 66  220/ 17/ 21 1016.3          5/ 5
EXECUTION ROCKS  0300            58 63  190/  6/  8   N/A
WESTERN LI SOUND 0300            58     190/  6/  8   N/A           0
CENTRAL LI SOUND 0200            61 64  230/ 14/ 17   N/A           2/ 3
EASTERN LI SOUND 0200            61 64  220/ 12/ 16   N/A
ROBBINS REEF     NOT AVBL
$$


>>>>>>>>>>>>>>>>>>>>>>>>>>>> KEY <<<<<<<<<<<<<<<<<<<<<<<<<<<
>                                                          <
>     SKY/WX - SKY CONDITION/PRESENT WEATHER               <
>     TMP    - TEMPERATURE IN FAHRENHEIT                   <
>     DP     - DEWPOINT IN FAHRENHEIT                      <
>     RH     - RELATIVE HUMIDITY IN PERCENT                <
>     WIND   - DIRECTION AND SPEED IN MPH                  <
>     PRES   - MEAN SEA LEVEL PRESSURE IN INCHES OF HG     <
>     WCI    - WIND CHILL INDEX                            <
>     VSB    - VISIBILITY IN MILES                         <
>     HX     - HEAT INDEX                                  <
>     TC     - TEMPERATURE IN CELSIUS                      <
>     VRB    - VARIABLE WIND DIRECTION                     <
>                                                          <
>>>>>>>>>>>>>>>>>>>>>>>>>>>> KEY <<<<<<<<<<<<<<<<<<<<<<<<<<<





USA.gov is the U.S. government's official web portal to all federal, state and local government web resources and services.